Time,TemperatureF,DewpointF,PressureIn,WindDirection,WindDirectionDegrees,WindSpeedMPH,WindSpeedGustMPH,Humidity,HourlyPrecipIn,Conditions,Clouds,dailyrainin,SolarRadiationWatts/m^2,SoftwareType,DateUTC
2013-02-02 00:15:00,53.3,45.9,30.23,ESE,115,4.0,4.0,76,0.00,,,0.00,0,Wunderground v.1.15,2013-02-02 08:15:00,
2013-02-02 00:20:00,53.3,45.9,30.23,ESE,114,4.0,4.0,76,0.00,,,0.00,0,Wunderground v.1.15,2013-02-02 08:20:00,
2013-02-02 00:35:00,53.3,45.9,30.23,ESE,114,4.0,5.0,76,0.00,,,0.00,0,Wunderground v.1.15,2013-02-02 08:35:00,
2013-02-02 00:45:00,53.0,45.6,30.23,ESE,115,4.0,5.0,76,0.00,,,0.00,0,Wunderground v.1.15,2013-02-02 08:45:00,
2013-02-02 00:50:00,52.8,45.4,30.23,ESE,115,4.0,5.0,76,0.00,,,0.00,0,Wunderground v.1.15,2013-02-02 08:50:00,
2013-02-02 01:05:00,52.6,45.6,30.22,ESE,113,4.0,4.0,77,0.00,,,0.00,0,Wunderground v.1.15,2013-02-02 09:05:00,
2013-02-02 01:11:00,52.7,45.7,30.23,ESE,113,3.0,4.0,77,0.00,,,0.00,0,Wunderground v.1.15,2013-02-02 09:11:00,
2013-02-02 01:20:00,52.7,45.7,30.22,ESE,114,1.0,1.0,77,0.00,,,0.00,0,Wunderground v.1.15,2013-02-02 09:20:00,
2013-02-02 01:31:00,52.7,45.7,30.23,ESE,114,0.0,1.0,77,0.00,,,0.00,0,Wunderground v.1.15,2013-02-02 09:31:00,
2013-02-02 01:40:00,52.6,45.6,30.23,ESE,114,0.0,0.0,77,0.00,,,0.00,0,Wunderground v.1.15,2013-02-02 09:40:00,
2013-02-02 01:50:00,52.3,45.3,30.24,ESE,114,0.0,0.0,77,0.00,,,0.00,0,Wunderground v.1.15,2013-02-02 09:50:00,
2013-02-02 02:00:00,51.8,45.2,30.25,ESE,114,0.0,0.0,78,0.00,,,0.00,0,Wunderground v.1.15,2013-02-02 10:00:00,
2013-02-02 02:11:00,51.1,44.8,30.24,ESE,114,0.0,0.0,79,0.00,,,0.00,0,Wunderground v.1.15,2013-02-02 10:11:00,
2013-02-02 02:21:00,50.3,45.0,30.23,ESE,114,0.0,0.0,82,0.00,,,0.00,0,Wunderground v.1.15,2013-02-02 10:21:00,
2013-02-02 02:35:00,50.5,45.5,30.23,ESE,113,0.0,0.0,83,0.00,,,0.00,0,Wunderground v.1.15,2013-02-02 10:35:00,
2013-02-02 02:40:00,50.9,45.3,30.23,ESE,113,0.0,0.0,81,0.00,,,0.00,0,Wunderground v.1.15,2013-02-02 10:40:00,
2013-02-02 02:55:00,51.0,45.4,30.24,ESE,114,0.0,0.0,81,0.00,,,0.00,0,Wunderground v.1.15,2013-02-02 10:55:00,
2013-02-02 03:00:00,50.9,45.3,30.24,ESE,114,0.0,0.0,81,0.00,,,0.00,0,Wunderground v.1.15,2013-02-02 11:00:00,
2013-02-02 03:15:00,50.8,45.2,30.25,ESE,114,0.0,0.0,81,0.00,,,0.00,0,Wunderground v.1.15,2013-02-02 11:15:00,
2013-02-02 03:20:00,50.7,45.1,30.24,ESE,114,0.0,0.0,81,0.00,,,0.00,0,Wunderground v.1.15,2013-02-02 11:20:00,
2013-02-02 03:35:00,50.6,45.3,30.23,ESE,114,0.0,0.0,82,0.00,,,0.00,0,Wunderground v.1.15,2013-02-02 11:35:00,
2013-02-02 03:40:00,50.6,45.3,30.23,ESE,113,0.0,0.0,82,0.00,,,0.00,0,Wunderground v.1.15,2013-02-02 11:40:00,
2013-02-02 03:51:00,51.1,45.5,30.23,ESE,113,0.0,0.0,81,0.00,,,0.00,0,Wunderground v.1.15,2013-02-02 11:51:00,
2013-02-02 04:00:00,51.4,45.4,30.22,ESE,114,0.0,0.0,80,0.00,,,0.00,0,Wunderground v.1.15,2013-02-02 12:00:00,
2013-02-02 04:15:00,51.2,45.6,30.22,ESE,106,0.0,3.0,81,0.00,,,0.00,0,Wunderground v.1.15,2013-02-02 12:15:00,
2013-02-02 04:21:00,51.2,45.6,30.22,East,99,2.0,3.0,81,0.00,,,0.00,0,Wunderground v.1.15,2013-02-02 12:21:00,
2013-02-02 04:31:00,51.6,45.6,30.22,East,99,3.0,3.0,80,0.00,,,0.00,0,Wunderground v.1.15,2013-02-02 12:31:00,
2013-02-02 04:40:00,52.3,46.0,30.23,East,100,1.0,3.0,79,0.00,,,0.00,0,Wunderground v.1.15,2013-02-02 12:40:00,
2013-02-02 04:50:00,52.1,45.4,30.23,East,101,4.0,5.0,78,0.00,,,0.00,0,Wunderground v.1.15,2013-02-02 12:50:00,
2013-02-02 05:05:00,51.1,45.1,30.23,East,101,5.0,5.0,80,0.00,,,0.00,0,Wunderground v.1.15,2013-02-02 13:05:00,
2013-02-02 05:10:00,50.9,45.3,30.23,East,101,4.0,5.0,81,0.00,,,0.00,0,Wunderground v.1.15,2013-02-02 13:10:00,
2013-02-02 05:25:00,50.5,44.9,30.23,East,101,0.0,0.0,81,0.00,,,0.00,0,Wunderground v.1.15,2013-02-02 13:25:00,
2013-02-02 05:35:00,50.1,44.8,30.23,East,101,0.0,0.0,82,0.00,,,0.00,0,Wunderground v.1.15,2013-02-02 13:35:00,
2013-02-02 05:41:00,49.9,44.6,30.23,East,101,0.0,0.0,82,0.00,,,0.00,0,Wunderground v.1.15,2013-02-02 13:41:00,
2013-02-02 05:51:00,49.4,44.5,30.23,East,101,0.0,0.0,83,0.00,,,0.00,0,Wunderground v.1.15,2013-02-02 13:51:00,
2013-02-02 06:05:00,48.6,44.6,30.23,East,101,1.0,1.0,86,0.00,,,0.00,0,Wunderground v.1.15,2013-02-02 14:05:00,
2013-02-02 06:15:00,48.3,44.3,30.23,East,101,0.0,0.0,86,0.00,,,0.00,0,Wunderground v.1.15,2013-02-02 14:15:00,
2013-02-02 06:25:00,48.5,44.8,30.23,East,101,0.0,0.0,87,0.00,,,0.00,0,Wunderground v.1.15,2013-02-02 14:25:00,
2013-02-02 06:30:00,48.8,45.1,30.23,East,101,0.0,0.0,87,0.00,,,0.00,0,Wunderground v.1.15,2013-02-02 14:30:00,
2013-02-02 06:45:00,49.2,45.2,30.24,East,101,0.0,0.0,86,0.00,,,0.00,0,Wunderground v.1.15,2013-02-02 14:45:00,
2013-02-02 06:55:00,49.3,45.0,30.25,East,101,0.0,0.0,85,0.00,,,0.00,0,Wunderground v.1.15,2013-02-02 14:55:00,
2013-02-02 07:00:00,49.2,44.9,30.25,East,101,0.0,0.0,85,0.00,,,0.00,0,Wunderground v.1.15,2013-02-02 15:00:00,
2013-02-02 07:11:00,48.7,44.4,30.26,East,101,0.0,0.0,85,0.00,,,0.00,0,Wunderground v.1.15,2013-02-02 15:11:00,
2013-02-02 07:20:00,48.1,44.1,30.25,East,101,3.0,3.0,86,0.00,,,0.00,0,Wunderground v.1.15,2013-02-02 15:20:00,
2013-02-02 07:30:00,47.9,44.2,30.26,East,101,2.0,2.0,87,0.00,,,0.00,7,Wunderground v.1.15,2013-02-02 15:30:00,
2013-02-02 07:40:00,47.8,44.1,30.27,East,101,0.0,0.0,87,0.00,,,0.00,12,Wunderground v.1.15,2013-02-02 15:40:00,
2013-02-02 07:51:00,47.6,43.9,30.27,East,101,0.0,0.0,87,0.00,,,0.00,21,Wunderground v.1.15,2013-02-02 15:51:00,
2013-02-02 08:00:00,47.2,43.8,30.28,East,101,0.0,0.0,88,0.00,,,0.00,32,Wunderground v.1.15,2013-02-02 16:00:00,
2013-02-02 08:10:00,46.9,43.5,30.28,East,101,0.0,0.0,88,0.00,,,0.00,46,Wunderground v.1.15,2013-02-02 16:10:00,
2013-02-02 08:20:00,46.7,43.3,30.27,East,101,0.0,0.0,88,0.00,,,0.00,65,Wunderground v.1.15,2013-02-02 16:20:00,
2013-02-02 08:30:00,46.7,43.6,30.28,East,101,0.0,0.0,89,0.00,,,0.00,91,Wunderground v.1.15,2013-02-02 16:30:00,
2013-02-02 08:41:00,46.8,44.0,30.28,East,101,0.0,0.0,90,0.00,,,0.00,107,Wunderground v.1.15,2013-02-02 16:41:00,
2013-02-02 08:51:00,46.9,44.1,30.29,East,101,0.0,0.0,90,0.00,,,0.00,113,Wunderground v.1.15,2013-02-02 16:51:00,
2013-02-02 09:01:00,46.9,44.1,30.29,East,101,0.0,0.0,90,0.00,,,0.00,127,Wunderground v.1.15,2013-02-02 17:01:00,
2013-02-02 09:10:00,47.0,44.2,30.29,East,101,0.0,0.0,90,0.00,,,0.00,146,Wunderground v.1.15,2013-02-02 17:10:00,
2013-02-02 09:20:00,47.2,44.4,30.29,East,101,0.0,0.0,90,0.00,,,0.00,162,Wunderground v.1.15,2013-02-02 17:20:00,
2013-02-02 09:30:00,47.4,44.6,30.29,East,101,0.0,0.0,90,0.00,,,0.00,174,Wunderground v.1.15,2013-02-02 17:30:00,
2013-02-02 09:45:00,47.8,45.3,30.29,East,101,0.0,0.0,91,0.00,,,0.00,200,Wunderground v.1.15,2013-02-02 17:45:00,
2013-02-02 09:51:00,48.1,45.6,30.29,East,101,0.0,0.0,91,0.00,,,0.00,213,Wunderground v.1.15,2013-02-02 17:51:00,
2013-02-02 10:00:00,48.5,45.7,30.28,East,101,0.0,0.0,90,0.00,,,0.00,225,Wunderground v.1.15,2013-02-02 18:00:00,
2013-02-02 10:10:00,48.9,46.1,30.29,ESE,102,0.0,0.0,90,0.00,,,0.00,214,Wunderground v.1.15,2013-02-02 18:10:00,
2013-02-02 10:25:00,49.2,46.1,30.29,East,101,0.0,0.0,89,0.00,,,0.00,174,Wunderground v.1.15,2013-02-02 18:25:00,
2013-02-02 10:35:00,49.3,46.2,30.28,East,101,0.0,0.0,89,0.00,,,0.00,294,Wunderground v.1.15,2013-02-02 18:35:00,
2013-02-02 10:45:00,49.7,46.6,30.29,SE,140,1.0,1.0,89,0.00,,,0.00,462,Wunderground v.1.15,2013-02-02 18:45:00,
2013-02-02 10:55:00,49.9,46.8,30.30,SSE,151,1.0,1.0,89,0.00,,,0.00,218,Wunderground v.1.15,2013-02-02 18:55:00,
2013-02-02 11:05:00,49.6,46.2,30.30,SSE,165,0.0,0.0,88,0.00,,,0.00,146,Wunderground v.1.15,2013-02-02 19:05:00,
2013-02-02 11:15:00,49.1,46.0,30.30,SSE,164,0.0,0.0,89,0.00,,,0.00,135,Wunderground v.1.15,2013-02-02 19:15:00,
2013-02-02 11:25:00,48.9,46.1,30.30,SSE,164,0.0,0.0,90,0.00,,,0.00,130,Wunderground v.1.15,2013-02-02 19:25:00,
2013-02-02 11:31:00,48.7,45.9,30.30,SSE,164,0.0,0.0,90,0.00,,,0.00,149,Wunderground v.1.15,2013-02-02 19:31:00,
2013-02-02 11:40:00,48.6,45.8,30.30,SSE,164,0.0,0.0,90,0.00,,,0.00,202,Wunderground v.1.15,2013-02-02 19:40:00,
2013-02-02 11:55:00,48.6,46.1,30.29,SSE,168,1.0,4.0,91,0.00,,,0.00,290,Wunderground v.1.15,2013-02-02 19:55:00,
2013-02-02 12:00:00,48.7,46.2,30.28,SW,235,3.0,6.0,91,0.00,,,0.00,334,Wunderground v.1.15,2013-02-02 20:00:00,
2013-02-02 12:15:00,49.3,46.8,30.28,West,262,5.0,5.0,91,0.00,,,0.00,403,Wunderground v.1.15,2013-02-02 20:15:00,
2013-02-02 12:21:00,49.8,47.3,30.27,West,264,5.0,6.0,91,0.00,,,0.00,410,Wunderground v.1.15,2013-02-02 20:21:00,
2013-02-02 12:35:00,51.1,48.3,30.27,West,264,3.0,5.0,90,0.00,,,0.00,587,Wunderground v.1.15,2013-02-02 20:35:00,
2013-02-02 12:40:00,51.7,48.6,30.26,West,264,5.0,5.0,89,0.00,,,0.00,466,Wunderground v.1.15,2013-02-02 20:40:00,
2013-02-02 12:51:00,52.6,48.8,30.26,West,264,3.0,4.0,87,0.00,,,0.00,473,Wunderground v.1.15,2013-02-02 20:51:00,
2013-02-02 13:05:00,53.7,49.3,30.25,West,264,0.0,0.0,85,0.00,,,0.00,371,Wunderground v.1.15,2013-02-02 21:05:00,
2013-02-02 13:11:00,53.9,49.2,30.25,West,264,0.0,0.0,84,0.00,,,0.00,392,Wunderground v.1.15,2013-02-02 21:11:00,
2013-02-02 13:20:00,54.4,49.7,30.25,West,264,0.0,0.0,84,0.00,,,0.00,543,Wunderground v.1.15,2013-02-02 21:20:00,
2013-02-02 13:30:00,55.0,49.9,30.24,West,264,1.0,4.0,83,0.00,,,0.00,547,Wunderground v.1.15,2013-02-02 21:30:00,
2013-02-02 13:40:00,55.1,49.4,30.24,WSW,254,2.0,4.0,81,0.00,,,0.00,454,Wunderground v.1.15,2013-02-02 21:40:00,
2013-02-02 13:50:00,55.1,49.4,30.24,WSW,254,3.0,5.0,81,0.00,,,0.00,408,Wunderground v.1.15,2013-02-02 21:50:00,
2013-02-02 14:01:00,55.0,49.3,30.24,West,264,5.0,5.0,81,0.00,,,0.00,325,Wunderground v.1.15,2013-02-02 22:01:00,
2013-02-02 14:11:00,55.0,49.3,30.24,West,264,3.0,3.0,81,0.00,,,0.00,329,Wunderground v.1.15,2013-02-02 22:11:00,
2013-02-02 14:25:00,55.3,49.6,30.24,SSE,165,1.0,1.0,81,0.00,,,0.00,246,Wunderground v.1.15,2013-02-02 22:25:00,
2013-02-02 14:35:00,55.3,49.2,30.24,SSE,157,1.0,1.0,80,0.00,,,0.00,255,Wunderground v.1.15,2013-02-02 22:35:00,
2013-02-02 14:40:00,55.1,49.4,30.24,SSE,149,2.0,2.0,81,0.00,,,0.00,253,Wunderground v.1.15,2013-02-02 22:40:00,
2013-02-02 14:50:00,54.8,49.1,30.24,SSE,148,0.0,1.0,81,0.00,,,0.00,234,Wunderground v.1.15,2013-02-02 22:50:00,
2013-02-02 15:05:00,54.4,49.0,30.25,SSE,162,1.0,1.0,82,0.00,,,0.00,213,Wunderground v.1.15,2013-02-02 23:05:00,
2013-02-02 15:11:00,54.0,48.6,30.25,South,176,1.0,3.0,82,0.00,,,0.00,209,Wunderground v.1.15,2013-02-02 23:11:00,
2013-02-02 15:25:00,53.1,48.1,30.25,South,187,0.0,0.0,83,0.00,,,0.00,197,Wunderground v.1.15,2013-02-02 23:25:00,
2013-02-02 15:35:00,52.9,48.2,30.24,South,187,0.0,0.0,84,0.00,,,0.00,204,Wunderground v.1.15,2013-02-02 23:35:00,
2013-02-02 15:40:00,52.7,48.0,30.24,South,187,0.0,0.0,84,0.00,,,0.00,185,Wunderground v.1.15,2013-02-02 23:40:00,
2013-02-02 15:50:00,52.4,47.7,30.25,South,187,0.0,0.0,84,0.00,,,0.00,146,Wunderground v.1.15,2013-02-02 23:50:00,
2013-02-02 16:01:00,52.3,47.9,30.24,South,187,0.0,0.0,85,0.00,,,0.00,111,Wunderground v.1.15,2013-02-03 00:01:00,
2013-02-02 16:15:00,52.0,47.6,30.24,South,187,0.0,0.0,85,0.00,,,0.00,95,Wunderground v.1.15,2013-02-03 00:15:00,
2013-02-02 16:20:00,51.8,47.4,30.24,South,187,0.0,0.0,85,0.00,,,0.00,88,Wunderground v.1.15,2013-02-03 00:20:00,
2013-02-02 16:31:00,51.5,47.5,30.24,South,187,0.0,0.0,86,0.00,,,0.00,76,Wunderground v.1.15,2013-02-03 00:31:00,
2013-02-02 16:41:00,51.1,47.1,30.24,South,187,2.0,4.0,86,0.00,,,0.00,62,Wunderground v.1.15,2013-02-03 00:41:00,
2013-02-02 16:50:00,50.9,46.9,30.24,South,187,0.0,1.0,86,0.00,,,0.00,49,Wunderground v.1.15,2013-02-03 00:50:00,
2013-02-02 17:05:00,50.6,46.9,30.24,South,187,2.0,2.0,87,0.00,,,0.00,33,Wunderground v.1.15,2013-02-03 01:05:00,
2013-02-02 17:15:00,50.5,46.8,30.24,South,187,3.0,4.0,87,0.00,,,0.00,21,Wunderground v.1.15,2013-02-03 01:15:00,
2013-02-02 17:25:00,50.4,46.7,30.24,South,187,4.0,4.0,87,0.00,,,0.00,12,Wunderground v.1.15,2013-02-03 01:25:00,
2013-02-02 17:35:00,50.3,46.6,30.24,South,187,4.0,4.0,87,0.00,,,0.00,5,Wunderground v.1.15,2013-02-03 01:35:00,
2013-02-02 17:45:00,50.3,46.9,30.24,South,187,3.0,3.0,88,0.00,,,0.00,0,Wunderground v.1.15,2013-02-03 01:45:00,
2013-02-02 17:55:00,50.3,46.6,30.24,South,187,2.0,2.0,87,0.00,,,0.00,0,Wunderground v.1.15,2013-02-03 01:55:00,
2013-02-02 18:01:00,50.3,46.6,30.24,South,187,1.0,1.0,87,0.00,,,0.00,0,Wunderground v.1.15,2013-02-03 02:01:00,
2013-02-02 18:15:00,50.4,46.7,30.25,South,187,2.0,3.0,87,0.00,,,0.00,0,Wunderground v.1.15,2013-02-03 02:15:00,
2013-02-02 18:20:00,50.5,46.8,30.25,South,187,2.0,3.0,87,0.00,,,0.00,0,Wunderground v.1.15,2013-02-03 02:20:00,
2013-02-02 18:35:00,50.4,46.7,30.25,SSW,199,2.0,4.0,87,0.00,,,0.00,0,Wunderground v.1.15,2013-02-03 02:35:00,
2013-02-02 18:45:00,49.8,46.1,30.25,SSW,198,1.0,1.0,87,0.00,,,0.00,0,Wunderground v.1.15,2013-02-03 02:45:00,
2013-02-02 18:51:00,49.4,46.0,30.25,SSW,198,0.0,1.0,88,0.00,,,0.00,0,Wunderground v.1.15,2013-02-03 02:51:00,
2013-02-02 19:05:00,48.8,45.7,30.25,SSW,198,0.0,0.0,89,0.00,,,0.00,0,Wunderground v.1.15,2013-02-03 03:05:00,
2013-02-02 19:15:00,48.6,45.8,30.25,SSW,198,0.0,0.0,90,0.00,,,0.00,0,Wunderground v.1.15,2013-02-03 03:15:00,
2013-02-02 19:25:00,48.5,46.0,30.25,SSW,199,0.0,0.0,91,0.00,,,0.00,0,Wunderground v.1.15,2013-02-03 03:25:00,
2013-02-02 19:35:00,48.4,45.9,30.25,SSW,199,0.0,0.0,91,0.00,,,0.00,0,Wunderground v.1.15,2013-02-03 03:35:00,
2013-02-02 19:45:00,48.4,45.9,30.25,SSW,198,0.0,0.0,91,0.00,,,0.00,0,Wunderground v.1.15,2013-02-03 03:45:00,
2013-02-02 19:50:00,48.3,45.8,30.25,SSW,198,0.0,0.0,91,0.00,,,0.00,0,Wunderground v.1.15,2013-02-03 03:50:00,
2013-02-02 20:00:00,48.2,45.7,30.25,SSW,198,0.0,0.0,91,0.00,,,0.00,0,Wunderground v.1.15,2013-02-03 04:00:00,
2013-02-02 20:15:00,48.0,45.5,30.25,SSW,198,0.0,0.0,91,0.00,,,0.00,0,Wunderground v.1.15,2013-02-03 04:15:00,
2013-02-02 20:21:00,48.0,45.5,30.25,SSW,198,0.0,0.0,91,0.00,,,0.00,0,Wunderground v.1.15,2013-02-03 04:21:00,
2013-02-02 20:35:00,47.9,45.4,30.25,SSW,199,0.0,0.0,91,0.00,,,0.00,0,Wunderground v.1.15,2013-02-03 04:35:00,
2013-02-02 20:41:00,47.8,45.3,30.25,SSW,199,0.0,0.0,91,0.00,,,0.00,0,Wunderground v.1.15,2013-02-03 04:41:00,
2013-02-02 20:50:00,47.5,45.0,30.26,SSW,198,0.0,0.0,91,0.00,,,0.00,0,Wunderground v.1.15,2013-02-03 04:50:00,
2013-02-02 21:00:00,47.4,44.9,30.25,SSW,198,0.0,0.0,91,0.00,,,0.00,0,Wunderground v.1.15,2013-02-03 05:00:00,
2013-02-02 21:05:00,47.3,44.8,30.26,SSW,198,0.0,0.0,91,0.00,,,0.00,0,Wunderground v.1.15,2013-02-03 05:05:00,
2013-02-02 21:11:00,47.3,45.1,30.25,SSW,198,0.0,0.0,92,0.00,,,0.00,0,Wunderground v.1.15,2013-02-03 05:11:00,
2013-02-02 21:20:00,47.2,45.0,30.25,SSW,199,0.0,0.0,92,0.00,,,0.00,0,Wunderground v.1.15,2013-02-03 05:20:00,
2013-02-02 21:25:00,47.2,45.0,30.25,SSW,199,0.0,0.0,92,0.00,,,0.00,0,Wunderground v.1.15,2013-02-03 05:25:00,
2013-02-02 21:31:00,47.1,44.9,30.25,SSW,198,0.0,0.0,92,0.00,,,0.00,0,Wunderground v.1.15,2013-02-03 05:31:00,
2013-02-02 21:45:00,46.9,44.7,30.25,SSW,198,0.0,0.0,92,0.00,,,0.00,0,Wunderground v.1.15,2013-02-03 05:45:00,
2013-02-02 21:55:00,46.8,44.6,30.25,SSW,198,0.0,0.0,92,0.00,,,0.00,0,Wunderground v.1.15,2013-02-03 05:55:00,
2013-02-02 22:05:00,46.7,44.5,30.25,SSW,198,0.0,0.0,92,0.00,,,0.00,0,Wunderground v.1.15,2013-02-03 06:05:00,
2013-02-02 22:15:00,46.6,44.7,30.25,SSW,198,0.0,0.0,93,0.00,,,0.00,0,Wunderground v.1.15,2013-02-03 06:15:00,
2013-02-02 22:21:00,46.5,44.6,30.25,SSW,199,0.0,0.0,93,0.00,,,0.00,0,Wunderground v.1.15,2013-02-03 06:21:00,
2013-02-02 22:35:00,46.3,44.4,30.25,South,187,0.0,4.0,93,0.00,,,0.00,0,Wunderground v.1.15,2013-02-03 06:35:00,
2013-02-02 22:45:00,46.2,44.3,30.26,South,180,3.0,3.0,93,0.00,,,0.00,0,Wunderground v.1.15,2013-02-03 06:45:00,
2013-02-02 22:55:00,46.1,44.2,30.25,South,176,1.0,1.0,93,0.00,,,0.00,0,Wunderground v.1.15,2013-02-03 06:55:00,
2013-02-02 23:05:00,46.1,44.5,30.25,South,169,1.0,1.0,94,0.00,,,0.00,0,Wunderground v.1.15,2013-02-03 07:05:00,
2013-02-02 23:15:00,46.1,44.5,30.25,SSE,153,2.0,6.0,94,0.00,,,0.00,0,Wunderground v.1.15,2013-02-03 07:15:00,
2013-02-02 23:21:00,46.0,44.4,30.26,SSE,148,4.0,6.0,94,0.00,,,0.00,0,Wunderground v.1.15,2013-02-03 07:21:00,